Погода в Яре

Россия / Тюменская область     57°10′01″N   65°42′09″E
темп.,
°C
ветер,
м/с
пор.,
м/с
влажн.,
%
обл.,
%
осадки,
мм/ч
давл.,
гПа
погр.,
м
27 февраля, сб
сб2723:00−25ююв339966 0.0 102933
02:00−26ююв349752 0.0 102848
05:00−29ююв349747 0.0 102876
08:00−31ююв369752 0.0 1027120
11:00−26ююв479449 0.0 1026277
14:00−22юв48923 0.0 1025341
17:00−20юв49912 0.0 1023389
20:00−22юв5119561 0.0 1021338
28 февраля, вс
вс2823:00−20вюв589780 0.4 1020395
02:00−19вюв5996100 0.4 1017375
05:00−18вюв5996100 0.9 1015389
08:00−18в51096100 0.5 1014432
11:00−16в5894100 1.1 1013491
14:00−15в5892100 0.3 1012543
17:00−15всв5893100 0.6 1011553
20:00−17всв489599 0.2 1011404
1 марта, пн
пн123:00−17св4895100 0.4 1012390
02:00−18св3796100 0.1 1012324
05:00−19ссв3696100 0.2 1013248
08:00−20с359896 0.1 1014105
11:00−17с349295 0.1 1015399
14:00−15с2388100 0.1 1016485
17:00−15с2393100 0.1 1017222
20:00−19с129899 0.0 101720
2 марта, вт
вт223:00−19с119998 0.1 101820
02:00−21ссз0110081 0.1 101720
05:00−22сз0010083 0.1 101720
08:00−22зюз0110095 0.0 101620
11:00−17ююз119295 0.1 1015235
14:00−14ююз1286100 0.0 1014429
17:00−14вюв1193100 0.1 101449
20:00−17ююв3397100 0.1 101452
3 марта, ср
ср323:00−20ююз239879 0.1 101422
02:00−22ю239738 0.0 101420
05:00−22ю239820 0.0 101426
08:00−23ююв339822 0.0 101461
11:00−17ююв469352 0.0 1014265
14:00−14ююв4791100 0.0 1014386
17:00−13ююв5992100 0.0 1013437
20:00−15ююв41094100 0.0 1013380